Home > Weather > Ho Chi Minh > Past weeks

Flag for Vietnam Weather for the Past 2 Weeks in Ho Chi Minh, Vietnam

Now
95 °F

Scattered clouds.


Feels Like: 100 °F
Forecast: 82 / 94 °F
Wind: 7 mph from East

Location: Ho Chi Minh

Current Time: Apr 30, 2016 at 12:28:11 PM

Latest Report: Apr 30, 2016 at 11:30 AM


Visibility: N/A

Pressure: 29.83 "Hg

Humidity: 41%

Dew Point: 68 °F

Location of Ho Chi MinhLocation

Historic Weather in Ho Chi Minh — Graph

°F

Ho Chi Minh Temperature Yesterday

Maximum temperature yesterday: 95 °F (at 11:30 AM)
Minimum temperature yesterday: 84 °F (at 4:30 AM)
Average temperature yesterday: 89 °F

High & Low Weather Summary for the Past Weeks

 TemperatureHumidityPressure
High100 °F (Apr 20, 12:00 PM)84% (Apr 24, 5:30 AM)29.89 "Hg (Apr 24, 5:30 AM)
Low79 °F (Apr 27, 8:00 PM)29% (Apr 26, 2:30 PM)29.65 "Hg (Apr 27, 3:30 PM)
Average88 °F61%29.79 "Hg
* Reported Apr 15 11:00 AM — Apr 30 11:00 AM, Ho Chi Minh, Weather by CustomWeather, © 2016

Note: Actual official high and low records may vary slightly from our data, if they occured in-between our weather recording intervals... More about our weather records

Advertising

Ho Chi Minh Weather History for the Previous 24 Hours

Scroll right to see more
 ConditionsComfort  
Time TempWeatherWind HumidityBarometerVisibility
11:00 AM
Sat, Apr 30
93 °FScattered clouds.3 mph44%29.83 "HgN/A
10:00 AM93 °FPassing clouds.6 mph44%29.86 "HgN/A
9:30 AM91 °FScattered clouds.8 mph46%29.86 "HgN/A
9:00 AM90 °FPartly sunny.7 mph55%29.86 "HgN/A
8:30 AM90 °FPartly sunny.7 mph59%29.86 "HgN/A
7:30 AM86 °FFog.5 mph70%29.86 "Hg3 mi
6:30 AM82 °FScattered clouds.2 mph74%29.83 "Hg4 mi
6:00 AM81 °FScattered clouds.3 mph79%29.80 "Hg4 mi
5:30 AM81 °FPassing clouds.2 mph79%29.80 "HgN/A
5:00 AM82 °FPassing clouds.2 mph70%29.80 "HgN/A
4:30 AM84 °FPassing clouds.3 mph70%29.77 "HgN/A
4:00 AM84 °FPassing clouds.3 mph70%29.77 "HgN/A
3:30 AM84 °FPassing clouds.7 mph70%29.77 "HgN/A
3:00 AM84 °FPassing clouds.6 mph70%29.77 "HgN/A
2:30 AM84 °FPassing clouds.5 mph74%29.77 "HgN/A
2:00 AM81 °FPassing clouds.1 mph74%29.77 "HgN/A
1:30 AM82 °FPassing clouds.1 mph70%29.80 "HgN/A
1:00 AM81 °FPassing clouds.No wind74%29.80 "HgN/A
12:30 AM81 °FPassing clouds.5 mph74%29.80 "HgN/A
12:00 AM82 °FPassing clouds.6 mph70%29.83 "HgN/A
11:30 PM
Fri, Apr 29
86 °FPassing clouds.3 mph66%29.83 "HgN/A
11:00 PM86 °FPassing clouds.6 mph66%29.83 "HgN/A
10:30 PM86 °FPassing clouds.6 mph66%29.83 "HgN/A
10:00 PM86 °FPassing clouds.7 mph62%29.83 "HgN/A
9:30 PM86 °FPassing clouds.6 mph62%29.83 "HgN/A
9:00 PM86 °FPassing clouds.6 mph62%29.83 "HgN/A
8:30 PM88 °FPassing clouds.9 mph59%29.80 "HgN/A
8:00 PM88 °FPassing clouds.8 mph55%29.80 "HgN/A
7:30 PM88 °FPassing clouds.7 mph55%29.80 "HgN/A
7:00 PM88 °FPassing clouds.9 mph52%29.80 "HgN/A
6:30 PM88 °FPassing clouds.10 mph55%29.77 "HgN/A
6:00 PM90 °FPassing clouds.12 mph52%29.77 "HgN/A
5:30 PM90 °FPassing clouds.12 mph52%29.74 "HgN/A
5:00 PM91 °FPassing clouds.13 mph49%29.74 "HgN/A
4:30 PM93 °FPassing clouds.13 mph47%29.71 "HgN/A
4:00 PM93 °FPassing clouds.10 mph47%29.71 "HgN/A
3:00 PM95 °FScattered clouds.12 mph50%29.74 "HgN/A
2:30 PM95 °FPartly sunny.10 mph50%29.74 "HgN/A
2:00 PM95 °FPartly sunny.10 mph47%29.77 "HgN/A
1:30 PM95 °FPartly sunny.6 mph50%29.77 "HgN/A
1:00 PM95 °FPartly sunny.9 mph50%29.77 "HgN/A
12:30 PM95 °FPartly sunny.8 mph47%29.80 "HgN/A
12:00 PM93 °FPartly sunny.7 mph49%29.80 "HgN/A
Weather by CustomWeather, © 2016

See weather overviewHow to use our weather pages